Regional Weather Roundup
Issued by NWS

Home | Current Version | Previous Version | Text Only | Print | Product List | Glossary On
Versions: 1 2 3 4 5 6 7 8 9 10 11 12 13 14 15 16 17 18 19 20 21 22 23 24 25 26 27 28 29 30 31 32 33 34 35 36 37 38 39 40 41 42 43 44 45 46 47 48 49 50
000
ASUS43 KTOP 242008
RWRKS

WEATHER ROUNDUP FOR KANSAS
NATIONAL WEATHER SERVICE GOODLAND KS
200 PM CST SAT JAN 24 2015

NOTE:  "FAIR" INDICATES FEW OR NO CLOUDS BELOW 12,000 FEET WITH NO
SIGNIFICANT WEATHER AND/OR OBSTRUCTIONS TO VISIBILITY.

KSZ001>006-013>018-027>032-041>047-242100-
NORTHWEST KANSAS

CITY           SKY/WX    TMP DP  RH WIND       PRES   REMARKS
GOODLAND       PTSUNNY   58  23  26 W21       29.92F
HAYS           CLOUDY    59  27  29 W21       29.88F
HILL CITY      CLOUDY    61  22  22 W18       29.86F
RUSSELL        CLOUDY    60  26  27 W23       29.85F
$$

KSZ061>065-074>080-084>089-242100-
SOUTHWEST KANSAS

CITY           SKY/WX    TMP DP  RH WIND       PRES   REMARKS
DODGE CITY     SUNNY     61  23  23 W21       29.94F
ELKHART          N/A    N/A N/A N/A MISG        N/A
GARDEN CITY    MOSUNNY   57  25  29 W18       29.93F
GREAT BEND     PTSUNNY   57  27  30 W17       29.90F
LIBERAL        SUNNY     57  27  30 SW21G28   29.99F
PRATT          SUNNY     63  27  25 W16G24    29.94F
$$

KSZ066>073-081>083-090>101-242100-
SOUTHEAST KANSAS

CITY           SKY/WX    TMP DP  RH WIND       PRES   REMARKS
CHANUTE        SUNNY     61  31  32 W12       29.90F
COFFEYVILLE    SUNNY     59  32  36 SW10      29.93F
HUTCHINSON     MOSUNNY   62  27  26 W22       29.90F
MEDICINE LODGE   N/A     62  26  25 W14G24    29.95F
NEWTON         MOSUNNY   59  27  29 W22       29.90F
PARSONS        SUNNY     62  33  33 SW12      29.92F
WICHITA INTL   MOSUNNY   63  26  24 W23G29    29.91F
WICHITA JABRA  SUNNY     62  28  27 SW15G24   29.91F
WICHITA MCCONL SUNNY     62  30  30 W18       29.91F
WINFIELD       SUNNY     60  30  32 SW16G25   29.95F
$$

KSZ007>012-019>026-033>040-048>060-102>105-242100-
NORTHEAST KANSAS

CITY           SKY/WX    TMP DP  RH WIND       PRES   REMARKS
CONCORDIA      PTSUNNY   54  27  35 W16G23    29.81F
EMPORIA        MOSUNNY   60  28  29 W17G28    29.85F
LAWRENCE       SUNNY     61  28  28 W21G29    29.81F
MANHATTAN      PTSUNNY   55  29  36 SW13      29.83F
MARYSVILLE     CLOUDY    54  32  43 SW13      29.79F
OLATHE IND     SUNNY     57  31  37 SW16      29.83F
OLATHE EXE     SUNNY     56  31  38 W15G21    29.82F
SALINA         PTSUNNY   60  27  28 W18       29.87F
TOPEKA BILLARD MOSUNNY   58  29  33 W14G22    29.82F
TOPEKA FORBES  MOSUNNY   59  28  30 W18G26    29.82F
$$



USA.gov is the U.S. government's official web portal to all federal, state and local government web resources and services.